Regional Weather Roundup
Issued by NWS

Home | Current Version | Previous Version | Text Only | Print | Product List | Glossary Off
Versions: 1 2 3 4 5 6 7 8 9 10 11 12 13 14 15 16 17 18 19 20 21 22 23 24 25 26 27 28 29 30 31 32 33 34 35 36 37 38 39 40 41 42 43 44 45 46 47 48 49 50

000
ASUS43 KLOT 250809
RWRIL

ILLINOIS REGIONAL WEATHER ROUNDUP
NATIONAL WEATHER SERVICE CHICAGO/ROMEOVILLE IL
300 AM CDT SUN JUN 25 2017

NOTE: "FAIR" INDICATES FEW OR NO CLOUDS BELOW 12,000 FEET WITH NO
SIGNIFICANT WEATHER AND/OR OBSTRUCTIONS TO VISIBILITY.

* THESE STATIONS ARE NOT UNDER NWS QUALITY CONTROL. THEY ALSO MAY NOT
  REPORT WEATHER SUCH AS PRECIPITATION OR FOG.

ILZ001-002-007-009-015-016-024-250900-
NORTHWEST ILLINOIS

CITY           SKY/WX    TMP DP  RH WIND       PRES   REMARKS
MOLINE         CLEAR     54  49  83 CALM      30.11S
STERLING*      CLEAR     53  51  93 SW3       30.10S
SAVANNA*       CLEAR     56  52  86 W8        30.09S
$$

ILZ003-004-008-010-011-017-018-250900-
NORTH CENTRAL ILLINOIS

CITY           SKY/WX    TMP DP  RH WIND       PRES   REMARKS
ROCKFORD       CLEAR     53  49  86 W6        30.09S
FREEPORT*      CLEAR     51  49  93 SW6       30.09F
ROCHELLE*      CLEAR     52  50  92 W6        30.09S
DE KALB*       CLEAR     54  47  80 W9        30.07F
PERU*          CLEAR     53  49  86 W7        30.10S
$$

ILZ005-006-012>014-019>023-250900-
NORTHEAST ILLINOIS

CITY           SKY/WX    TMP DP  RH WIND       PRES   REMARKS
CHICAGO-OHARE  PTCLDY    57  47  69 W9        30.05S
CHICAGO-MIDWAY CLEAR     60  47  61 W10       30.05S
AURORA         CLEAR     52  48  86 W6        30.08S
LANSING*       MOCLDY    59  46  62 W8        30.06R
JOLIET*        CLEAR     58  51  76 CALM      30.08S
WAUKEGAN       CLEAR     54  48  80 VRB3      30.03S
DUPAGE AIRPORT CLEAR     56  49  77 W8        30.06S
WHEELING       CLEAR     56  50  80 W6        30.06S
MORRIS*        CLEAR     55  49  82 W3        30.07S
ROMEOVILLE*    CLEAR     56  47  71 NW7       30.07S
NORTHERLY ISL    N/A     60  45  57 W9          N/A
$$

LMZ740>746-250900-
SOUTHERN LAKE MICHIGAN

STATION/POSITION SKY/WX   TEMP    WIND        PRES    VSBY  WAVE
                          AIR SEA DIR/SP/G                  HT/PER
                          (F)     (DEG/KT/KT) (MB)    (MI)  (FT/S)
SOUTHERN BUOY              59 61  300/ 19/ 21 1016.1          3/ 5
WILMETTE HARBOR            59 64  280/ 14/ 17   N/A           1/ 2
HARRISON CRIB              61     290/ 17/ 19   N/A
BURNHAM HARBOR             60                   N/A
CALUMET HARBOR             61     280/  7/ 12 1017.1R
BURNS HARBOR               64     250/ 10/ 12 1017.6F
MICHIGAN CITY              65     240/ 18/ 21   N/A
MICHIGAN CITY 6N           65 67  290/ 17/ 23   N/A           3/ 4
ST. JOSEPH                 65 68  300/ 21/ 25 1016.7          3/ 4
$$

ILZ025>027-034>036-040-047-049-050-058-095>099-250900-
WEST-CENTRAL ILLINOIS

CITY           SKY/WX    TMP DP  RH WIND       PRES   REMARKS
QUINCY         PTCLDY    60  49  66 W3        30.14F
GALESBURG*     CLEAR     51  49  90 CALM      30.14R
MACOMB*        CLEAR     53  49  87 W6        30.15F
JACKSONVILLE*  CLEAR     59  48  68 W7        30.15R
PITTSFIELD*    CLEAR     62  49  63 SW6       30.15S
$$

ILZ028>032-037-038-041>044-048-051>054-059>061-250900-
CENTRAL ILLINOIS

CITY           SKY/WX    TMP DP  RH WIND       PRES   REMARKS
PONTIAC        PTCLDY    57  53  86 NW7       30.10S
BLOOMINGTON    PTCLDY    59  46  62 W8        30.12S
DECATUR        CLEAR     58  48  69 SW9       30.11F
PEORIA         PTCLDY    56  50  80 CALM      30.12S
LACON*         CLEAR     53  51  90 CALM      30.10S
LINCOLN*       CLEAR     61  47  60 CALM      30.12S
SPRINGFIELD    CLEAR     61  48  62 NW16      30.14R
TAYLORVILLE    CLEAR     58  47  68 SW8       30.12F
$$

ILZ033-039-045-046-055>057-062-063-250900-
EAST-CENTRAL ILLINOIS

CITY           SKY/WX    TMP DP  RH WIND       PRES   REMARKS
CHAMPAIGN      CLEAR     56  47  71 SW8       30.10F
RANTOUL*       MOCLDY    60  48  64 NW14G22   30.11R
MATTOON        CLEAR     61  49  64 SW9       30.11F
PARIS*         CLEAR     54  49  82 SW8       30.12S
$$

ILZ079-100>102-250900-
SOUTHWEST ILLINOIS

CITY           SKY/WX    TMP DP  RH WIND       PRES   REMARKS
ALTON          PTCLDY    56  54  91 CALM      30.16S
BELLEVILLE     CLEAR     56  50  80 SW3       30.17S
CAHOKIA*       CLEAR     59  49  69 CALM      30.16S
SPARTA*        CLEAR     56  50  78 CALM      30.19R
$$

ILZ064>066-069>071-074>076-080>082-084>086-088>090-092>094-250900-
SOUTH-CENTRAL ILLINOIS

CITY           SKY/WX    TMP DP  RH WIND       PRES   REMARKS
CARBONDALE     CLEAR     56  56 100 S3        30.18S
CAIRO*         CLEAR     60  59  96 CALM      30.19S
EFFINGHAM*     PTCLDY    55  53  91 S3        30.16S
MARION         CLEAR     59  57  94 CALM      30.19S
MT. VERNON     CLEAR     54  52  94 CALM      30.17S FOG
CENTRALIA*     CLEAR     56  51  82 CALM      30.15S
SALEM*         CLEAR     58  51  78 S3        30.15F
METROPOLIS*    PTCLDY    59  58  97 CALM      30.19R
$$

ILZ067-068-072-073-078-083-087-091-250900-
SOUTHEAST ILLINOIS

CITY           SKY/WX    TMP DP  RH WIND       PRES   REMARKS
LAWRENCEVILLE  CLEAR     58  53  84 CALM      30.14F
FLORA*         CLEAR     56  52  86 SW5       30.16S
FAIRFIELD*     CLEAR     56  54  94 CALM      30.15S
HARRISBURG*    CLEAR     57  56  96 CALM      30.18S
ROBINSON*      CLEAR     53  51  94 SW3       30.14F
CARMI*         CLEAR     57  55  94 CALM      30.16S
$$

ABBREVIATIONS USED IN REMARKS
   TC - TEMPERATURE IN CELSIUS
  WCI - WIND CHILL INDEX
   HX - HEAT INDEX
  VSB - VISIBILITY
$$




USA.gov is the U.S. government's official web portal to all federal, state and local government web resources and services.